Regional Weather Roundup
Issued by NWS Wakefield, VA

Home | Current Version | Previous Version | Graphics & Text | Print | Product List | Glossary On
Versions: 1 2 3 4 5 6 7 8 9 10 11 12 13 14 15 16 17 18 19 20 21 22 23 24 25 26 27 28 29 30 31 32 33 34 35 36 37 38 39 40 41 42 43 44 45 46 47 48 49 50
000
ASUS41 KAKQ 290914
RWRAKQ

REGIONAL WEATHER ROUNDUP
NATIONAL WEATHER SERVICE WAKEFIELD VA
500 AM EDT SAT AUG 29 2015

Note: "fair" indicates few or no clouds below 12,000 feet with no
significant weather and/or obstructions to visibility. * = Denotes
station may not report precipitation (e.g., rain,snow,etc.),
thunder or fog.

VAZ042-051-052>054-056-291000-
NORTHERN VIRGINIA

CITY           SKY/WX    TMP DP  RH WIND       PRES   REMARKS
WASH NATIONAL  MOCLDY    69  61  75 SW5       30.20S
DULLES         PTCLDY    64  59  83 SE6       30.19F
FORT BELVOIR   CLEAR     61  60  95 CALM      30.19S
QUANTICO       MOCLDY    65  61  87 NW6       30.21R
FREDERICKSBRG* PTCLDY    64  64  99 CALM      30.19S
STAFFORD*      CLEAR     58  57  97 CALM      30.24S FOG
WARRENTON      PTCLDY    61  61  99 CALM      30.19S
CULPEPER*      PTCLDY    59  59 100 CALM      30.20S FOG
MANASSAS*      PTCLDY    63  63 100 CALM      30.19F
LEESBURG*      PTCLDY    64  63  94 CALM      30.20S
WINCHESTER     CLEAR     59  57  94 CALM      30.18S
FRONT ROYAL*   FAIR      59  59 100 CALM      30.17S
LURAY*         FAIR      59  59 100 CALM      30.19S FOG
$$

VAZ048-049-060>072-079>083-291000-
CENTRAL AND SOUTH CENTRAL VIRGINIA

CITY           SKY/WX    TMP DP  RH WIND       PRES   REMARKS
RICHMOND       PTCLDY    64  59  83 CALM      30.20S
CHESTERFIELD*  FAIR      59  46  63 CALM      30.21S
PETERSBURG*    MOCLDY    58  58 100 CALM      30.21R FOG
HANOVER        MOCLDY    61  59  93 CALM      30.22R
TAPPAHANNOCK*  CLEAR     59  56  90 CALM      30.20S
QUINTON*       PTSUNNY   59  59  98 CALM      30.20S
CHARLOTTSVILLE MOCLDY    65  61  87 S3        30.20S
GORDONSVILLE*  FAIR      60  60  99 CALM      30.20S
ORANGE*        MOCLDY    63  61  94 CALM      30.21F
LOUISA*        MOCLDY    61  57  88 CALM      30.20S
BUMPASS*       PTSUNNY   60  59  94 MISG      30.20S
FARMVILLE*     PTCLDY    63  63 100 CALM      30.19S
CREWE*         FAIR     N/A N/A N/A CALM      30.20S
FORT PICKETT*  PTSUNNY   60  58  93 CALM      30.20S
CHASE CITY*    PTSUNNY   63  63 100 CALM      30.20S
CLARKSVILLE*   FAIR      59  59 100 CALM      30.20S
SOUTH HILL*    PTCLDY    57  56  97 CALM      30.25S
LAWRENCEVILLE* FAIR      61  59  94 CALM      30.20R
EMPORIA*       FOG       54  54 100 CALM      30.21R VSB 3/4
$$

VAZ088>098-291000-
SOUTHEAST VIRGINIA

CITY           SKY/WX    TMP DP  RH WIND       PRES   REMARKS
NORFOLK        CLEAR     64  59  83 CALM      30.18F
VIRGINIA BEACH PTCLDY    64  58  80 CALM      30.17F
NORFOLK NAVAL  PTCLDY    64  59  83 CALM      30.20S
WEST POINT*    CLEAR     61  58  91 CALM      30.21S
SALUDA*        FAIR      60  59  96 CALM      30.19S
NEWPORT NEWS   CLEAR     59  58  96 CALM      30.18F
LANGLEY AFB    CLEAR     62  60  92 W1        30.18S
FORT EUSTIS    CLEAR     63  63 100 CALM      30.17S
WILLIAMSBURG*  CLEAR     64  64 100 CALM      30.20R
HR EXEC AP*      N/A     52  48  87 CALM      30.21S
FRANKLIN*      CLEAR     56  55  97 CALM      30.20R
WAKEFIELD      CLEAR     58  55  90 CALM      30.20S
$$

VAZ020-022-025-037-045-291000-
WEST CENTRAL AND SOUTHWEST VIRGINIA

CITY           SKY/WX    TMP DP  RH WIND       PRES   REMARKS
STAUNTON*      CLEAR     61  58  89 CALM      30.23S
WAYNESBORO*    FAIR      63  58  84 CALM      30.22S
HOT SPRINGS VA CLEAR     62  56  80 SW5       30.29S
LYNCHBURG      CLEAR     59  58  96 CALM      30.23S
DANVILLE       PTCLDY    60  58  92 CALM      30.21R
SOUTH BOSTON*  PTSUNNY   59  57  95 CALM      30.20S
MARTINSVILLE   PTCLDY    57  57 100 CALM      30.24S FOG
ROANOKE        PTCLDY    63  60  90 CALM      30.23S
BLACKSBURG     MOCLDY    61  61  99 CALM      30.28S
DUBLIN*        CLOUDY    62  62 100 CALM      30.26S
MARION*        PTCLDY    58  57  94 CALM      30.29R FOG
HILLSVILLE*    PTCLDY    62  57  85 S5        30.26S
RICHLANDS*     FAIR      66  23  19 CALM      30.25S
WISE*          MOCLDY    64  54  68 S3        30.25F
ABINGDON*      PTCLDY    63  58  84 CALM      30.23S
$$

MDZ021>025-VAZ099-100-291000-
SOUTHERN MARYLAND AND THE DELMARVA PENINSULA

CITY           SKY/WX    TMP DP  RH WIND       PRES   REMARKS
PATUXENT RIVER CLEAR     59  57  93 CALM      30.19S
BAY BRIDGE APT   N/A     70  63  78 SW5       30.19S
LEONARDTOWN    PTCLDY    63  59  88 CALM      30.21S
DOVER          CLEAR     65  59  82 SW6       30.17F
GEORGETOWN     CLEAR     58  55  90 CALM      30.20F
EASTON         NOT AVBL
CAMBRIDGE      CLEAR     61  59  94 CALM      30.19S
SALISBURY      CLEAR     58  55  90 CALM      30.19F
OCEAN CITY     CLEAR     58  55  90 CALM      30.20S
WALLOPS ISLAND CLEAR     61  59  93 CALM      30.20S
ACCOMACK*      CLEAR     54  54 100 CALM      30.20R
$$

NCZ012>017-030>032-291000-
NORTH CENTRAL AND EASTERN NORTH CAROLINA

CITY           SKY/WX    TMP DP  RH WIND       PRES   REMARKS
ROANOKE RAPIDS FAIR      55  54  94 CALM      30.19F FOG
RALEIGH        PTCLDY    62  60  93 CALM      30.20S
ELIZABETH CITY CLEAR     64  62  93 W3        30.17S
AHOSKIE*       CLEAR     56  55  95 CALM      30.19S
EDENTON*       CLEAR     62  60  94 N5        30.17F
CURRITUCK*     CLEAR     64  60  88 CALM      30.18S
KILL DEVIL HLS PTCLDY    74  64  70 NE6       30.15R
MANTEO         CLEAR     73  66  79 NE8       30.16S
CAPE HATTERAS  CLOUDY    76  70  82 NE9       30.13S
TARBORO*       FAIR      56  55  96 CALM      30.19F
GOLDSBORO      NOT AVBL
WASHINGTON     CLEAR     63  61  95 N6        30.16F
GREENVILLE     CLEAR     59  59 100 CALM      30.18F FOG
NEW BERN       CLEAR     69  66  90 NE5       30.15F
WILMINGTON     PTCLDY    67  65  93 N5        30.12F
$$

VAZ048-291000-
ELSEWHERE

CITY           SKY/WX    TMP DP  RH WIND       PRES   REMARKS
HARRISBURG PA  PTCLDY    61  57  87 E5        30.18F
BALTIMORE      MOCLDY    63  60  90 CALM      30.19S
ANNAPOLIS      PTCLDY    68  62  81 CALM      30.18S
ANDREWS AFB    MOCLDY    63  60  88 S3        30.19S
PHILADELPHIA   CLEAR     67  58  72 NW6       30.20S
HENDERSON NC   CLEAR     62  59  90 CALM      30.20F
GREENSBORO     PTCLDY    66  59  78 CALM      30.20S
ROCKY MOUNT    FOG       59  58  96 NE3       30.18F VSB 1/2
$$

VAZ100-291000-
MARINE

STATION/POSITION TIME  TEMP    WIND        PRES    WAVE   SWELL
                       AIR SEA DIR/SP/G            HT/PER HT/PER
                 (UTC) (F)     (DEG/KT/KT) (MB)    (FT/S) (FT/S)
15NM E FENWICK I 0850   74 78  280/  4/  6 1022.6F   3/11   3/11
THOMAS POINT MD  0800          230/  8       N/A
CHESAPEAKE LGHT  0800   75      60/  8/  9 1022.7S
CAPE HENRY BUOY  0828      78                N/A     3/11   2/11
CAPE CHARLES BUO 0826      78                N/A     3/11   3/11
OFFSHORE WE BUOY 0811      78                N/A     3/10   3/10
64NM E OF VA BCH 0850   77 80   50/ 10/ 12 1021.0F   4/10   3/10
44100 DUCK FRF   0824      77                N/A     4/10   2/11
44056 DUCK FRF   0811      78                N/A     3/10   2/12
DIAMOND SHLS NC  0850   78 82   30/ 17/ 19 1019.4F   5/11   3/11
CAPE LOOKOUT NC  0900   77      30/ 19/ 23 1019.5S
$$



USA.gov is the U.S. government's official web portal to all federal, state and local government web resources and services.